Time,TemperatureF,DewpointF,PressureIn,WindDirection,WindDirectionDegrees,WindSpeedMPH,WindSpeedGustMPH,Humidity,HourlyPrecipIn,Conditions,Clouds,dailyrainin,SolarRadiationWatts/m^2,SoftwareType,DateUTC
2013-04-28 00:03:00,77.0,-99.9,-100.00,ENE,73,0.0,0.0,74,0.00,,,0.00,0.000000,,2013-04-28 04:03:00,
2013-04-28 00:13:00,77.0,68.0,-100.00,ENE,73,0.0,0.0,74,0.00,,,0.00,0.000000,,2013-04-28 04:13:00,
2013-04-28 00:23:00,77.0,68.0,-100.00,ENE,73,0.0,0.0,74,0.00,,,0.00,0.000000,,2013-04-28 04:23:00,
2013-04-28 00:32:00,77.0,68.0,-100.00,ENE,73,0.0,0.0,74,0.00,,,0.00,0.000000,,2013-04-28 04:32:00,
2013-04-28 01:02:00,76.0,68.0,-100.00,ENE,76,0.0,0.0,77,0.00,,,0.00,0.000000,,2013-04-28 05:02:00,
2013-04-28 01:12:00,76.0,68.0,-100.00,ENE,76,0.0,0.0,77,0.00,,,0.00,0.000000,,2013-04-28 05:12:00,
2013-04-28 01:22:00,76.0,68.0,-100.00,ENE,76,0.0,0.0,77,0.00,,,0.00,0.000000,,2013-04-28 05:22:00,
2013-04-28 01:32:00,76.0,68.0,-100.00,ENE,76,0.0,0.0,77,0.00,,,0.00,0.000000,,2013-04-28 05:32:00,
2013-04-28 02:01:00,76.0,70.0,-100.00,ENE,75,0.0,0.0,81,0.00,,,0.00,0.000000,,2013-04-28 06:01:00,
2013-04-28 02:13:00,76.0,70.0,-100.00,ENE,75,0.0,0.0,81,0.00,,,0.00,0.000000,,2013-04-28 06:13:00,
2013-04-28 02:21:00,76.0,70.0,-100.00,ENE,75,0.0,0.0,81,0.00,,,0.00,0.000000,,2013-04-28 06:21:00,
2013-04-28 02:32:00,76.0,70.0,-100.00,ENE,75,0.0,0.0,81,0.00,,,0.00,0.000000,,2013-04-28 06:32:00,
2013-04-28 03:02:00,74.0,71.0,-100.00,East,98,0.0,0.0,90,0.11,,,0.11,0.000000,,2013-04-28 07:02:00,
2013-04-28 03:11:00,74.0,71.0,-100.00,East,98,0.0,0.0,90,0.11,,,0.11,0.000000,,2013-04-28 07:11:00,
2013-04-28 03:21:00,74.0,71.0,-100.00,East,98,0.0,0.0,90,0.11,,,0.11,0.000000,,2013-04-28 07:21:00,
2013-04-28 03:32:00,74.0,71.0,-100.00,East,98,0.0,0.0,90,0.11,,,0.11,0.000000,,2013-04-28 07:32:00,
2013-04-28 04:02:00,74.0,68.0,-100.00,ESE,104,0.0,0.0,83,0.00,,,0.11,0.000000,,2013-04-28 08:02:00,
2013-04-28 04:12:00,74.0,68.0,-100.00,ESE,104,0.0,0.0,83,0.00,,,0.11,0.000000,,2013-04-28 08:12:00,
2013-04-28 04:21:00,74.0,68.0,-100.00,ESE,104,0.0,0.0,83,0.00,,,0.11,0.000000,,2013-04-28 08:21:00,
2013-04-28 04:32:00,74.0,68.0,-100.00,ESE,104,0.0,0.0,83,0.00,,,0.11,0.000000,,2013-04-28 08:32:00,
2013-04-28 05:01:00,76.0,66.0,-100.00,East,95,0.0,0.0,72,0.00,,,0.11,0.000000,,2013-04-28 09:01:00,
2013-04-28 05:12:00,76.0,66.0,-100.00,East,95,0.0,0.0,72,0.00,,,0.11,0.000000,,2013-04-28 09:12:00,
2013-04-28 05:22:00,76.0,66.0,-100.00,East,95,0.0,0.0,72,0.00,,,0.11,0.000000,,2013-04-28 09:22:00,
2013-04-28 05:33:00,76.0,66.0,-100.00,East,95,0.0,0.0,72,0.00,,,0.11,0.000000,,2013-04-28 09:33:00,
2013-04-28 06:03:00,75.0,66.0,-100.00,East,91,0.0,0.0,74,0.00,,,0.11,0.000000,,2013-04-28 10:03:00,
2013-04-28 06:12:00,75.0,66.0,-100.00,East,91,0.0,0.0,74,0.00,,,0.11,0.000000,,2013-04-28 10:12:00,
2013-04-28 06:23:00,75.0,66.0,-100.00,East,91,0.0,0.0,74,0.00,,,0.11,0.000000,,2013-04-28 10:23:00,
2013-04-28 06:32:00,75.0,66.0,-100.00,East,91,0.0,0.0,74,0.00,,,0.11,0.000000,,2013-04-28 10:32:00,
2013-04-28 07:02:00,74.0,66.0,-100.00,ESE,107,0.0,0.0,76,0.00,,,0.11,0.000000,,2013-04-28 11:02:00,
2013-04-28 07:11:00,74.0,66.0,-100.00,ESE,107,0.0,0.0,76,0.00,,,0.11,0.000000,,2013-04-28 11:11:00,
2013-04-28 07:22:00,74.0,66.0,-100.00,ESE,107,0.0,0.0,76,0.00,,,0.11,0.000000,,2013-04-28 11:22:00,
2013-04-28 07:32:00,74.0,66.0,-100.00,ESE,107,0.0,0.0,76,0.00,,,0.11,0.000000,,2013-04-28 11:32:00,
2013-04-28 08:02:00,74.0,66.0,-100.00,ESE,103,0.0,0.0,77,0.00,,,0.11,8.000000,,2013-04-28 12:02:00,
2013-04-28 08:12:00,74.0,66.0,-100.00,ESE,103,0.0,0.0,77,0.00,,,0.11,8.000000,,2013-04-28 12:12:00,
2013-04-28 08:22:00,74.0,66.0,-100.00,ESE,103,0.0,0.0,77,0.00,,,0.11,8.000000,,2013-04-28 12:22:00,
2013-04-28 08:32:00,74.0,66.0,-100.00,ESE,103,0.0,0.0,77,0.00,,,0.11,8.000000,,2013-04-28 12:32:00,
2013-04-28 09:02:00,76.0,69.0,-100.00,East,93,0.0,0.0,78,0.00,,,0.11,90.000000,,2013-04-28 13:02:00,
2013-04-28 09:11:00,76.0,69.0,-100.00,East,93,0.0,0.0,78,0.00,,,0.11,90.000000,,2013-04-28 13:11:00,
2013-04-28 09:21:00,76.0,69.0,-100.00,East,93,0.0,0.0,78,0.00,,,0.11,90.000000,,2013-04-28 13:21:00,
2013-04-28 09:32:00,76.0,69.0,-100.00,East,93,0.0,0.0,78,0.00,,,0.11,90.000000,,2013-04-28 13:32:00,
2013-04-28 10:02:00,81.0,67.0,-100.00,ESE,115,0.0,0.0,62,0.00,,,0.11,377.000000,,2013-04-28 14:02:00,
2013-04-28 10:11:00,81.0,67.0,-100.00,ESE,115,0.0,0.0,62,0.00,,,0.11,377.000000,,2013-04-28 14:11:00,
2013-04-28 10:22:00,81.0,67.0,-100.00,ESE,115,0.0,0.0,62,0.00,,,0.11,377.000000,,2013-04-28 14:22:00,
2013-04-28 10:32:00,81.0,67.0,-100.00,ESE,115,0.0,0.0,62,0.00,,,0.11,377.000000,,2013-04-28 14:32:00,
2013-04-28 11:02:00,83.0,68.0,-100.00,ESE,107,0.0,0.0,60,0.00,,,0.11,582.000000,,2013-04-28 15:02:00,
2013-04-28 11:12:00,83.0,68.0,-100.00,ESE,107,0.0,0.0,60,0.00,,,0.11,582.000000,,2013-04-28 15:12:00,
2013-04-28 11:21:00,83.0,68.0,-100.00,ESE,107,0.0,0.0,60,0.00,,,0.11,582.000000,,2013-04-28 15:21:00,
2013-04-28 11:32:00,83.0,68.0,-100.00,ESE,107,0.0,0.0,60,0.00,,,0.11,582.000000,,2013-04-28 15:32:00,
2013-04-28 12:03:00,83.0,68.0,-100.00,ESE,105,0.0,0.0,60,0.00,,,0.11,762.000000,,2013-04-28 16:03:00,
2013-04-28 12:13:00,83.0,68.0,-100.00,ESE,105,0.0,0.0,60,0.00,,,0.11,762.000000,,2013-04-28 16:13:00,
2013-04-28 12:23:00,83.0,68.0,-100.00,ESE,105,0.0,0.0,60,0.00,,,0.11,762.000000,,2013-04-28 16:23:00,
2013-04-28 12:33:00,83.0,68.0,-100.00,ESE,105,0.0,0.0,60,0.00,,,0.11,762.000000,,2013-04-28 16:33:00,
2013-04-28 13:02:00,84.0,67.0,-100.00,ESE,111,0.0,0.0,56,0.00,,,0.11,854.000000,,2013-04-28 17:02:00,
2013-04-28 13:12:00,84.0,67.0,-100.00,ESE,111,0.0,0.0,56,0.00,,,0.11,854.000000,,2013-04-28 17:12:00,
2013-04-28 13:22:00,84.0,67.0,-100.00,ESE,111,0.0,0.0,56,0.00,,,0.11,854.000000,,2013-04-28 17:22:00,
2013-04-28 13:32:00,84.0,67.0,-100.00,ESE,111,0.0,0.0,56,0.00,,,0.11,854.000000,,2013-04-28 17:32:00,
2013-04-28 14:02:00,85.0,68.0,-100.00,ESE,106,0.0,0.0,57,0.00,,,-99.99,839.000000,,2013-04-28 18:02:00,
2013-04-28 14:12:00,85.0,68.0,-100.00,ESE,106,0.0,0.0,57,0.00,,,-99.99,839.000000,,2013-04-28 18:12:00,
2013-04-28 14:22:00,85.0,68.0,-100.00,ESE,106,0.0,0.0,57,0.00,,,-99.99,839.000000,,2013-04-28 18:22:00,
2013-04-28 14:32:00,85.0,68.0,-100.00,ESE,106,0.0,0.0,57,0.00,,,-99.99,839.000000,,2013-04-28 18:32:00,
2013-04-28 15:02:00,85.0,68.0,-100.00,ESE,105,0.0,0.0,57,0.00,,,0.11,871.000000,,2013-04-28 19:02:00,
2013-04-28 15:11:00,85.0,68.0,-100.00,ESE,105,0.0,0.0,57,0.00,,,0.11,871.000000,,2013-04-28 19:11:00,
2013-04-28 15:22:00,85.0,68.0,-100.00,ESE,105,0.0,0.0,57,0.00,,,0.11,871.000000,,2013-04-28 19:22:00,
2013-04-28 15:32:00,85.0,68.0,-100.00,ESE,105,0.0,0.0,57,0.00,,,0.11,871.000000,,2013-04-28 19:32:00,
2013-04-28 16:02:00,84.0,67.0,-100.00,ESE,105,0.0,0.0,57,0.00,,,0.11,801.000000,,2013-04-28 20:02:00,
2013-04-28 16:12:00,84.0,67.0,-100.00,ESE,105,0.0,0.0,57,0.00,,,0.11,801.000000,,2013-04-28 20:12:00,
2013-04-28 16:22:00,84.0,67.0,-100.00,ESE,105,0.0,0.0,57,0.00,,,0.11,801.000000,,2013-04-28 20:22:00,
2013-04-28 16:32:00,84.0,67.0,-100.00,ESE,105,0.0,0.0,57,0.00,,,0.11,801.000000,,2013-04-28 20:32:00,
2013-04-28 17:01:00,83.0,68.0,-100.00,ESE,102,0.0,0.0,60,0.00,,,0.11,681.000000,,2013-04-28 21:01:00,
2013-04-28 17:12:00,83.0,68.0,-100.00,ESE,102,0.0,0.0,60,0.00,,,0.11,681.000000,,2013-04-28 21:12:00,
2013-04-28 17:22:00,83.0,68.0,-100.00,ESE,102,0.0,0.0,60,0.00,,,0.11,681.000000,,2013-04-28 21:22:00,
2013-04-28 17:33:00,83.0,68.0,-100.00,ESE,102,0.0,0.0,60,0.00,,,0.11,681.000000,,2013-04-28 21:33:00,
2013-04-28 18:03:00,82.0,67.0,-100.00,ESE,105,0.0,0.0,61,0.00,,,0.11,473.000000,,2013-04-28 22:03:00,
2013-04-28 18:13:00,82.0,67.0,-100.00,ESE,105,0.0,0.0,61,0.00,,,0.11,473.000000,,2013-04-28 22:13:00,
2013-04-28 18:23:00,82.0,67.0,-100.00,ESE,105,0.0,0.0,61,0.00,,,0.11,473.000000,,2013-04-28 22:23:00,
2013-04-28 18:33:00,82.0,67.0,-100.00,ESE,105,0.0,0.0,61,0.00,,,0.11,473.000000,,2013-04-28 22:33:00,
2013-04-28 19:02:00,80.0,67.0,-100.00,East,96,0.0,0.0,64,0.00,,,0.11,299.000000,,2013-04-28 23:02:00,
2013-04-28 19:12:00,80.0,67.0,-100.00,East,96,0.0,0.0,64,0.00,,,0.11,299.000000,,2013-04-28 23:12:00,
2013-04-28 19:22:00,80.0,67.0,-100.00,East,96,0.0,0.0,64,0.00,,,0.11,299.000000,,2013-04-28 23:22:00,
2013-04-28 19:32:00,80.0,67.0,-100.00,East,96,0.0,0.0,64,0.00,,,0.11,299.000000,,2013-04-28 23:32:00,
2013-04-28 20:01:00,78.0,67.0,-100.00,East,95,0.0,0.0,70,0.00,,,0.11,96.000000,,2013-04-29 00:01:00,
2013-04-28 20:11:00,78.0,67.0,-100.00,East,95,0.0,0.0,70,0.00,,,0.11,96.000000,,2013-04-29 00:11:00,
2013-04-28 20:22:00,78.0,67.0,-100.00,East,95,0.0,0.0,70,0.00,,,0.11,96.000000,,2013-04-29 00:22:00,
2013-04-28 20:32:00,78.0,67.0,-100.00,East,95,0.0,0.0,70,0.00,,,0.11,96.000000,,2013-04-29 00:32:00,
2013-04-28 21:01:00,77.0,67.0,-100.00,East,92,0.0,0.0,72,0.00,,,0.11,2.000000,,2013-04-29 01:01:00,
2013-04-28 21:12:00,77.0,67.0,-100.00,East,92,0.0,0.0,72,0.00,,,0.11,2.000000,,2013-04-29 01:12:00,
2013-04-28 21:22:00,77.0,67.0,-100.00,East,92,0.0,0.0,72,0.00,,,0.11,2.000000,,2013-04-29 01:22:00,
2013-04-28 21:32:00,77.0,67.0,-100.00,East,92,0.0,0.0,72,0.00,,,0.11,2.000000,,2013-04-29 01:32:00,
2013-04-28 22:02:00,77.0,68.0,-100.00,East,97,0.0,0.0,74,0.00,,,0.11,0.000000,,2013-04-29 02:02:00,
2013-04-28 22:11:00,77.0,68.0,-100.00,East,97,0.0,0.0,74,0.00,,,0.11,0.000000,,2013-04-29 02:11:00,
2013-04-28 22:22:00,77.0,68.0,-100.00,East,97,0.0,0.0,74,0.00,,,0.11,0.000000,,2013-04-29 02:22:00,
2013-04-28 22:32:00,77.0,68.0,-100.00,East,97,0.0,0.0,74,0.00,,,0.11,0.000000,,2013-04-29 02:32:00,
2013-04-28 23:02:00,77.0,68.0,-100.00,ESE,117,0.0,0.0,73,0.00,,,0.11,0.000000,,2013-04-29 03:02:00,
2013-04-28 23:12:00,77.0,68.0,-100.00,ESE,117,0.0,0.0,73,0.00,,,0.11,0.000000,,2013-04-29 03:12:00,
2013-04-28 23:22:00,77.0,68.0,-100.00,ESE,117,0.0,0.0,73,0.00,,,0.11,0.000000,,2013-04-29 03:22:00,
2013-04-28 23:33:00,77.0,68.0,-100.00,ESE,117,0.0,0.0,73,0.00,,,0.11,0.000000,,2013-04-29 03:33:00,